Regional Weather Roundup
Issued by NWS

Home | Current Version | Previous Version | Text Only | Print | Product List | Glossary Off
Versions: 1 2 3 4 5 6 7 8 9 10 11 12 13 14 15 16 17 18 19 20 21 22 23 24 25 26 27

000
ASUS45 KBOU 220207
RWRCO

WEATHER ROUNDUP FOR COLORADO
NATIONAL WEATHER SERVICE DENVER/BOULDER CO
800 PM MDT WED JUN 21 2017

NOTE: "FAIR" INDICATES FEW OR NO CLOUDS BELOW 12000 FEET WITH NO
SIGNIFICANT WEATHER AND/OR OBSTRUCTIONS TO VISIBILITY.

COZ001>005-013-030-031-220300-
...NORTHWEST COLORADO...

CITY           SKY/WX    TMP DP  RH WIND       PRES   REMARKS
CRAIG          FAIR      78  48  34 NE5       30.06S
HAYDEN         FAIR      73  43  33 SE10      30.09F
MEEKER         FAIR      79  44  28 NE5       30.07F
RABBIT EARS PA MOCLDY    59  34  38 NW7       30.45F
STEAMBOAT SPGS FAIR      73  49  42 NE5       30.13F
WALDEN         FAIR      61  43  51 SE8       30.24F
$$

COZ006>008-011-220300-
...WEST CENTRAL VALLEYS...

CITY           SKY/WX    TMP DP  RH WIND       PRES   REMARKS
GRAND JUNCTION FAIR      94  33  11 N13       29.90S
MONTROSE       FAIR      87  34  15 W7        30.00R
EAGLE          FAIR      80  39  23 SE5       30.13S
RIFLE          FAIR      87  35  15 E12       30.00S
DELTA          FAIR      94  30  10 N12G17    29.94R
NUCLA          FAIR      86  30  13 NE9       30.06R
$$

COZ017>023-064>068-220300-
...SOUTHWEST COLORADO...

CITY           SKY/WX    TMP DP  RH WIND       PRES   REMARKS
DURANGO        FAIR      85  29  13 NW7       30.07F
CORTEZ         FAIR      88  35  15 N6        30.00S
PAGOSA SPRINGS FAIR      81  26  13 CALM      30.19R
TELLURIDE      FAIR      74  29  18 NW5       30.34S
WOLF CREEK PAS MOCLDY    59  30  33 CALM      30.62S
$$

COZ009-010-012-014-032>034-037-058>063-220300-
...CENTRAL COLORADO...

CITY           SKY/WX    TMP DP  RH WIND       PRES   REMARKS
ASPEN          FAIR      66  44  45 SW6       30.21S
BUENA VISTA    FAIR      78  24  13 W3        30.21R
COPPER MTN     FAIR      59  32  36 NW16      30.59S
BERTHOUD PASS  FAIR      46  34  61 W22       30.60F
COTTONWOOD PAS FAIR      72  18  13 W9G17     30.38F
GUNNISON       FAIR      77  37  23 NW8       30.18R
KREMMLING      NOT AVBL
LEADVILLE      FAIR      66  29  24 N10       30.39S
MONARCH PASS   FAIR      61  28  29 N7        30.68S
SALIDA         FAIR      84  26  12 N8G17     30.22R
SUNLIGHT       FAIR      59  32  36 N5        30.50F
WILKERSON PASS CLOUDY    61  28  29 N13G22    30.53F
$$

COZ069>075-220300-
...SAN LUIS VALLEY/SANGRE DE CRISTO MOUNTAINS...

CITY           SKY/WX    TMP DP  RH WIND       PRES   REMARKS
ALAMOSA        FAIR      75  40  28 SW7       30.14F
DEL NORTE      FAIR      80  32  17 SW6       30.19S
LA VETA PASS   FAIR      63  37  39 MISG      30.50F
SAGUACHE       FAIR      81  28  15 N16       30.19S
$$

COZ035-036-038>040-220300-
...NORTHERN COLORADO FRONT RANGE...

CITY           SKY/WX    TMP DP  RH WIND       PRES   REMARKS
DENVER INTL AP MOCLDY    86  35  16 SW6       29.97R
DMNS CITY PARK   N/A     87  34  15 NW15G28   29.97R
AURORA         MOCLDY    81  41  24 W6        29.99R
FRONT RANGE AP FAIR      84  34  16 S3        29.97S
ERIE MUNI ARPT FAIR      87  31  13 W12       29.94S
BOULDER MUN AP FAIR      88  34  14 W20G31    29.95F
CENTENNIAL     MOCLDY    84  36  18 W17G26    30.01R
BROOMFIELD     MOCLDY    86  36  16 NW12      30.00R
FORT COLLINS   FAIR      85  41  21 W8        29.91F
LONGMONT       FAIR      88  33  14 W8        29.94F
$$

COZ041-046-047-076>085-087-088-220300-
...PIKES PEAK/PALMER DIVIDE AND SOUTHERN FOOTHILLS...

CITY           SKY/WX    TMP DP  RH WIND       PRES   REMARKS
COLO. SPRINGS  FAIR      79  41  25 SW10      30.05F
A. F. ACADEMY  MOCLDY    78  41  26 SW3       30.07F
SCHRIEVER AFB  NOT AVBL
CHEYENNE MTN   NOT AVBL
ELLICOTT       FAIR     N/A N/A N/A NW7       30.02F
FALCON           N/A     74  41  30 CALM      30.11F
FORT CARSON    FAIR      78  40  25 SW7       30.02S
LIMON          FAIR      85  35  16 W13G23    29.94S
MONUMENT HILL  FAIR      72  37  28 SW7       30.13S
CANON CITY     CLEAR     84  45  24 CALM      29.98S
WALSENBURG     FAIR      81  50  34 NW3       30.02F
TRINIDAD       FAIR      78  46  32 SE6       30.00F
$$

COZ042>045-048>051-090-091-220300-
...NORTHEAST COLORADO...

CITY           SKY/WX    TMP DP  RH WIND       PRES   REMARKS
GREELEY ARPT   FAIR      87  41  19 W8        29.89S
AKRON          FAIR      85  39  19 NE6       29.87S
BURLINGTON     FAIR      86  49  27 N6        29.82S
WRAY           FAIR      88  45  22 NE6       29.77S
YUMA           NOT AVBL
STERLING       FAIR      90  43  19 CALM      29.79S
HOLYOKE        NOT AVBL
FORT MORGAN    FAIR      85  37  18 SE3       29.86F
$$

COZ086-089-092>099-220300-
...SOUTHEAST COLORADO...

CITY           SKY/WX    TMP DP  RH WIND       PRES   REMARKS
PUEBLO         FAIR      84  54  35 N3        29.90F
LA JUNTA       FAIR      84  50  30 W12       29.83F
LAMAR          FAIR      88  44  21 SW14      29.78R
SPRINGFIELD      N/A     82  49  31 S29G36    29.84F
$$




USA.gov is the U.S. government's official web portal to all federal, state and local government web resources and services.